Location: Ambatotampy
(18.8181°S, 47.6186°E)
Time: 00:16:13
(UTC+00:00)

USA 238 - Pass Details

Date: 21 January 2021
Orbit: 996 x 1216 km, 63.4° (Epoch: 24 February)

Event Time Altitude Azimuth Distance (km) Brightness Sun altitude
Rises 00:53:57 0° 202° (SSW) 3,816 6.7 -21.0°
Reaches altitude 10° 00:56:39 10° 199° (SSW) 2,834 6.1 -20.4°
Maximum altitude 01:03:15 69° 116° (ESE) 1,073 3.9 -19.1°
Drops below altitude 10° 01:09:39 10° 33° (NNE) 2,752 5.9 -17.8°
Sets 01:12:13 0° 31° (NNE) 3,698 6.6 -17.2°
